Time,TemperatureF,DewpointF,PressureIn,WindDirection,WindDirectionDegrees,WindSpeedMPH,WindSpeedGustMPH,Humidity,HourlyPrecipIn,Conditions,Clouds,dailyrainin,SoftwareType,DateUTC
2013-10-03 00:09:00,63.3,47.1,29.98,ENE,67,2.6,4.6,56,0.00,,,0.00,WUHU21636XXSP,2013-10-03 05:09:00,
2013-10-03 00:19:00,63.3,47.7,29.98,NE,45,1.5,11.8,57,0.00,,,0.00,WUHU21636XXSP,2013-10-03 05:19:00,
2013-10-03 00:29:00,63.1,47.5,29.97,NE,45,0.0,4.6,57,0.00,,,0.00,WUHU21636XXSP,2013-10-03 05:29:00,
2013-10-03 00:39:00,62.8,47.1,29.97,NE,45,2.6,8.2,57,0.00,,,0.00,WUHU21636XXSP,2013-10-03 05:39:00,
2013-10-03 00:49:00,62.4,46.9,29.96,ENE,67,1.3,8.5,58,0.00,,,0.00,WUHU21636XXSP,2013-10-03 05:49:00,
2013-10-03 00:59:00,62.4,47.3,29.95,NE,45,4.4,10.7,58,0.00,,,0.00,WUHU21636XXSP,2013-10-03 05:59:00,
2013-10-03 01:09:00,62.2,47.1,29.95,NE,45,4.6,12.0,58,0.00,,,0.00,WUHU21636XXSP,2013-10-03 06:09:00,
2013-10-03 01:19:00,61.9,47.3,29.95,ENE,67,5.3,12.5,59,0.00,,,0.00,WUHU21636XXSP,2013-10-03 06:19:00,
2013-10-03 01:29:00,61.9,47.3,29.95,NE,45,6.7,15.6,59,0.00,,,0.00,WUHU21636XXSP,2013-10-03 06:29:00,
2013-10-03 01:39:00,61.7,48.0,29.95,NE,45,2.9,14.0,61,0.00,,,0.00,WUHU21636XXSP,2013-10-03 06:39:00,
2013-10-03 01:49:00,61.5,47.8,29.95,ENE,67,2.0,10.0,61,0.00,,,0.00,WUHU21636XXSP,2013-10-03 06:49:00,
2013-10-03 01:59:00,61.3,48.2,29.94,NE,45,3.8,8.7,62,0.00,,,0.00,WUHU21636XXSP,2013-10-03 06:59:00,
2013-10-03 02:09:00,61.3,48.2,29.95,NE,45,4.9,9.3,62,0.00,,,0.00,WUHU21636XXSP,2013-10-03 07:09:00,
2013-10-03 02:19:00,61.0,48.7,29.95,NE,45,4.6,11.4,64,0.00,,,0.00,WUHU21636XXSP,2013-10-03 07:19:00,
2013-10-03 02:29:00,60.8,48.9,29.95,NE,45,6.2,13.8,65,0.00,,,0.00,WUHU21636XXSP,2013-10-03 07:29:00,
2013-10-03 02:39:00,60.6,48.7,29.95,NNE,22,0.4,12.5,66,0.00,,,0.00,WUHU21636XXSP,2013-10-03 07:39:00,
2013-10-03 02:49:00,60.6,49.1,29.94,NE,45,0.0,7.6,66,0.00,,,0.00,WUHU21636XXSP,2013-10-03 07:49:00,
2013-10-03 02:59:00,60.4,49.8,29.94,ENE,67,5.8,12.0,68,0.00,,,0.00,WUHU21636XXSP,2013-10-03 07:59:00,
2013-10-03 03:09:00,60.4,50.7,29.95,NNE,22,4.6,10.7,70,0.00,,,0.00,WUHU21636XXSP,2013-10-03 08:09:00,
2013-10-03 03:19:00,60.4,50.7,29.94,NE,45,5.8,7.1,70,0.00,,,0.00,WUHU21636XXSP,2013-10-03 08:19:00,
2013-10-03 03:29:00,60.3,50.5,29.94,NE,45,2.2,6.9,70,0.00,,,0.00,WUHU21636XXSP,2013-10-03 08:29:00,
2013-10-03 03:39:00,60.1,49.8,29.93,ENE,67,4.2,13.1,69,0.00,,,0.00,WUHU21636XXSP,2013-10-03 08:39:00,
2013-10-03 03:49:00,59.9,49.6,29.92,NE,45,5.5,13.1,69,0.00,,,0.00,WUHU21636XXSP,2013-10-03 08:49:00,
2013-10-03 03:59:00,59.5,49.3,29.92,NE,45,2.9,9.6,69,0.00,,,0.00,WUHU21636XXSP,2013-10-03 08:59:00,
2013-10-03 04:09:00,59.5,49.3,29.92,NE,45,4.4,8.9,69,0.00,,,0.00,WUHU21636XXSP,2013-10-03 09:09:00,
2013-10-03 04:19:00,59.4,49.6,29.91,ENE,67,4.6,9.6,70,0.00,,,0.00,WUHU21636XXSP,2013-10-03 09:19:00,
2013-10-03 04:29:00,59.5,50.2,29.91,ENE,67,5.5,5.5,71,0.00,,,0.00,WUHU21636XXSP,2013-10-03 09:29:00,
2013-10-03 04:39:00,59.7,50.7,29.90,ENE,67,4.9,13.1,72,0.00,,,0.00,WUHU21636XXSP,2013-10-03 09:39:00,
2013-10-03 04:49:00,59.7,51.1,29.90,NE,45,1.1,12.5,73,0.00,,,0.00,WUHU21636XXSP,2013-10-03 09:49:00,
2013-10-03 04:59:00,59.9,51.6,29.90,ENE,67,4.0,12.3,74,0.00,,,0.00,WUHU21636XXSP,2013-10-03 09:59:00,
2013-10-03 05:09:00,59.9,52.3,29.90,ENE,67,4.6,11.8,76,0.00,,,0.00,WUHU21636XXSP,2013-10-03 10:09:00,
2013-10-03 05:19:00,60.1,52.5,29.90,ENE,67,1.7,6.2,76,0.00,,,0.00,WUHU21636XXSP,2013-10-03 10:19:00,
2013-10-03 05:29:00,60.1,53.2,29.90,NE,45,3.5,7.1,78,0.00,,,0.00,WUHU21636XXSP,2013-10-03 10:29:00,
2013-10-03 05:39:00,60.4,54.0,29.90,ENE,67,3.8,10.7,80,0.00,,,0.00,WUHU21636XXSP,2013-10-03 10:39:00,
2013-10-03 05:49:00,60.6,54.7,29.90,NE,45,4.2,11.1,81,0.00,,,0.00,WUHU21636XXSP,2013-10-03 10:49:00,
2013-10-03 05:59:00,61.0,55.0,29.91,NE,45,2.0,9.8,81,0.00,,,0.00,WUHU21636XXSP,2013-10-03 10:59:00,
2013-10-03 06:09:00,61.2,55.2,29.91,ENE,67,0.0,4.6,81,0.00,,,0.00,WUHU21636XXSP,2013-10-03 11:09:00,
2013-10-03 06:19:00,61.3,55.8,29.91,ENE,67,2.9,6.9,82,0.00,,,0.00,WUHU21636XXSP,2013-10-03 11:19:00,
2013-10-03 06:29:00,61.3,55.8,29.91,ENE,67,3.1,9.3,82,0.00,,,0.00,WUHU21636XXSP,2013-10-03 11:29:00,
2013-10-03 06:39:00,61.3,55.8,29.90,NE,45,5.5,10.0,82,0.00,,,0.00,WUHU21636XXSP,2013-10-03 11:39:00,
2013-10-03 06:49:00,61.3,56.1,29.90,East,90,7.6,10.5,83,0.00,,,0.00,WUHU21636XXSP,2013-10-03 11:49:00,
2013-10-03 06:59:00,61.3,56.1,29.91,ENE,67,2.4,7.6,83,0.00,,,0.00,WUHU21636XXSP,2013-10-03 11:59:00,
2013-10-03 07:09:00,61.5,56.5,29.91,ENE,67,5.3,8.0,84,0.00,,,0.00,WUHU21636XXSP,2013-10-03 12:09:00,
2013-10-03 07:19:00,61.5,56.5,29.91,NE,45,0.0,9.8,84,0.00,,,0.00,WUHU21636XXSP,2013-10-03 12:19:00,
2013-10-03 07:29:00,61.9,56.8,29.91,ENE,67,0.0,0.0,84,0.00,,,0.00,WUHU21636XXSP,2013-10-03 12:29:00,
2013-10-03 07:39:00,62.2,57.6,29.91,ENE,67,0.0,0.6,85,0.00,,,0.00,WUHU21636XXSP,2013-10-03 12:39:00,
2013-10-03 07:49:00,62.2,57.6,29.91,ENE,67,0.0,1.3,85,0.00,,,0.00,WUHU21636XXSP,2013-10-03 12:49:00,
2013-10-03 07:59:00,62.4,57.7,29.91,ENE,67,0.0,0.6,85,0.00,,,0.00,WUHU21636XXSP,2013-10-03 12:59:00,
2013-10-03 08:09:00,62.8,58.1,29.91,ENE,67,0.0,0.0,85,0.00,,,0.00,WUHU21636XXSP,2013-10-03 13:09:00,
2013-10-03 08:19:00,63.0,58.3,29.91,ENE,67,0.0,0.0,85,0.00,,,0.00,WUHU21636XXSP,2013-10-03 13:19:00,
2013-10-03 08:29:00,63.1,58.5,29.91,ENE,67,0.0,0.0,85,0.00,,,0.00,WUHU21636XXSP,2013-10-03 13:29:00,
2013-10-03 08:39:00,63.3,58.6,29.91,ENE,67,0.0,0.0,86,0.00,,,0.00,WUHU21636XXSP,2013-10-03 13:39:00,
2013-10-03 08:49:00,63.5,59.2,29.91,ENE,67,0.0,0.0,86,0.00,,,0.00,WUHU21636XXSP,2013-10-03 13:49:00,
2013-10-03 08:59:00,63.9,59.5,29.91,ENE,67,0.0,0.0,86,0.00,,,0.00,WUHU21636XXSP,2013-10-03 13:59:00,
2013-10-03 09:09:00,64.0,59.7,29.91,ENE,67,0.0,0.8,86,0.00,,,0.00,WUHU21636XXSP,2013-10-03 14:09:00,
2013-10-03 09:19:00,64.0,59.7,29.92,East,90,0.0,1.1,88,0.00,,,0.00,WUHU21636XXSP,2013-10-03 14:19:00,
2013-10-03 09:29:00,64.0,60.4,29.92,ESE,112,5.5,5.5,88,0.00,,,0.00,WUHU21636XXSP,2013-10-03 14:29:00,
2013-10-03 09:39:00,64.0,60.4,29.93,SE,135,4.0,11.8,88,0.00,,,0.00,WUHU21636XXSP,2013-10-03 14:39:00,
2013-10-03 09:49:00,64.0,60.4,29.92,SE,135,3.5,11.6,88,0.00,,,0.00,WUHU21636XXSP,2013-10-03 14:49:00,
2013-10-03 09:59:00,64.0,60.4,29.92,SE,135,0.2,7.1,88,0.00,,,0.00,WUHU21636XXSP,2013-10-03 14:59:00,
2013-10-03 10:09:00,64.0,60.4,29.93,SE,135,0.0,12.7,88,0.00,,,0.00,WUHU21636XXSP,2013-10-03 15:09:00,
2013-10-03 10:19:00,64.4,60.8,29.93,SE,135,0.0,3.8,88,0.00,,,0.00,WUHU21636XXSP,2013-10-03 15:19:00,
2013-10-03 10:29:00,64.4,60.4,29.93,SE,135,0.4,9.6,87,0.00,,,0.00,WUHU21636XXSP,2013-10-03 15:29:00,
2013-10-03 10:39:00,64.8,60.8,29.93,SE,135,2.4,11.1,87,0.00,,,0.00,WUHU21636XXSP,2013-10-03 15:39:00,
2013-10-03 10:49:00,64.8,60.8,29.93,East,90,0.0,8.2,87,0.00,,,0.00,WUHU21636XXSP,2013-10-03 15:49:00,
2013-10-03 10:59:00,64.9,61.0,29.93,ESE,112,3.5,3.5,87,0.00,,,0.00,WUHU21636XXSP,2013-10-03 15:59:00,
2013-10-03 11:09:00,65.1,61.2,29.93,SE,135,2.6,3.5,87,0.00,,,0.00,WUHU21636XXSP,2013-10-03 16:09:00,
2013-10-03 11:19:00,65.3,61.2,29.92,ESE,112,2.0,2.6,87,0.00,,,0.00,WUHU21636XXSP,2013-10-03 16:19:00,
2013-10-03 11:29:00,65.7,61.5,29.92,SE,135,2.4,6.4,87,0.00,,,0.00,WUHU21636XXSP,2013-10-03 16:29:00,
2013-10-03 11:39:00,65.8,61.3,29.92,ESE,112,0.0,5.1,86,0.00,,,0.00,WUHU21636XXSP,2013-10-03 16:39:00,
2013-10-03 11:49:00,66.0,61.5,29.92,SE,135,2.4,6.0,86,0.00,,,0.00,WUHU21636XXSP,2013-10-03 16:49:00,
2013-10-03 11:59:00,66.6,61.9,29.92,SE,135,5.8,7.1,85,0.00,,,0.00,WUHU21636XXSP,2013-10-03 16:59:00,
2013-10-03 12:09:00,67.1,62.1,29.92,ESE,112,5.5,9.6,84,0.00,,,0.00,WUHU21636XXSP,2013-10-03 17:09:00,
2013-10-03 12:19:00,67.3,62.2,29.91,SE,135,1.5,10.7,84,0.00,,,0.00,WUHU21636XXSP,2013-10-03 17:19:00,
2013-10-03 12:29:00,67.8,62.4,29.91,SE,135,7.6,7.8,83,0.00,,,0.00,WUHU21636XXSP,2013-10-03 17:29:00,
2013-10-03 12:39:00,68.2,62.4,29.91,ESE,112,3.3,8.9,82,0.00,,,0.00,WUHU21636XXSP,2013-10-03 17:39:00,
2013-10-03 12:49:00,68.5,62.4,29.91,SE,135,4.0,12.0,81,0.00,,,0.00,WUHU21636XXSP,2013-10-03 17:49:00,
2013-10-03 12:59:00,68.5,62.1,29.92,ESE,112,0.0,8.2,81,0.00,,,0.00,WUHU21636XXSP,2013-10-03 17:59:00,
2013-10-03 13:09:00,68.5,62.4,29.92,SE,135,4.0,4.0,81,0.00,,,0.00,WUHU21636XXSP,2013-10-03 18:09:00,
2013-10-03 13:19:00,68.7,62.6,29.91,ESE,112,0.0,4.0,80,0.00,,,0.00,WUHU21636XXSP,2013-10-03 18:19:00,
2013-10-03 13:29:00,68.9,62.4,29.91,ESE,112,2.0,2.0,79,0.00,,,0.00,WUHU21636XXSP,2013-10-03 18:29:00,
2013-10-03 13:39:00,69.1,62.2,29.90,ESE,112,0.0,2.0,79,0.00,,,0.00,WUHU21636XXSP,2013-10-03 18:39:00,
2013-10-03 13:49:00,69.4,62.6,29.90,ENE,67,1.3,3.8,78,0.00,,,0.00,WUHU21636XXSP,2013-10-03 18:49:00,
2013-10-03 13:59:00,69.1,62.2,29.90,ENE,67,0.8,1.3,78,0.00,,,0.00,WUHU21636XXSP,2013-10-03 18:59:00,
2013-10-03 14:09:00,69.4,62.2,29.90,ENE,67,0.4,4.2,78,0.00,,,0.00,WUHU21636XXSP,2013-10-03 19:09:00,
2013-10-03 14:19:00,69.3,62.1,29.90,ENE,67,0.0,0.4,78,0.00,,,0.00,WUHU21636XXSP,2013-10-03 19:19:00,
2013-10-03 14:29:00,69.3,62.1,29.89,ENE,67,0.0,0.0,78,0.00,,,0.00,WUHU21636XXSP,2013-10-03 19:29:00,
2013-10-03 14:39:00,68.5,58.6,29.90,NNW,337,2.0,4.9,71,0.00,,,0.00,WUHU21636XXSP,2013-10-03 19:39:00,
2013-10-03 14:49:00,65.8,56.1,29.90,NNE,22,6.2,16.3,71,0.00,,,0.00,WUHU21636XXSP,2013-10-03 19:49:00,
2013-10-03 14:59:00,65.5,56.8,29.89,North,0,3.5,17.4,74,0.00,,,0.00,WUHU21636XXSP,2013-10-03 19:59:00,
2013-10-03 15:09:00,65.5,56.1,29.89,ENE,67,12.7,20.3,72,0.00,,,0.00,WUHU21636XXSP,2013-10-03 20:09:00,
2013-10-03 15:19:00,64.9,55.9,29.89,North,0,10.7,17.8,73,0.00,,,0.00,WUHU21636XXSP,2013-10-03 20:19:00,
2013-10-03 15:29:00,64.2,55.8,29.89,North,0,11.6,21.9,74,0.00,,,0.00,WUHU21636XXSP,2013-10-03 20:29:00,
2013-10-03 15:39:00,64.4,55.9,29.89,NNE,22,7.6,18.1,74,0.00,,,0.00,WUHU21636XXSP,2013-10-03 20:39:00,
2013-10-03 15:49:00,64.2,55.8,29.89,NNE,22,10.7,17.2,74,0.00,,,0.00,WUHU21636XXSP,2013-10-03 20:49:00,
2013-10-03 15:59:00,64.0,55.6,29.89,NNE,22,8.0,20.8,74,0.00,,,0.00,WUHU21636XXSP,2013-10-03 20:59:00,
2013-10-03 16:09:00,63.7,54.9,29.89,NNE,22,3.1,17.6,73,0.00,,,0.00,WUHU21636XXSP,2013-10-03 21:09:00,
2013-10-03 16:19:00,63.3,54.5,29.89,NNE,22,2.2,21.2,73,0.00,,,0.00,WUHU21636XXSP,2013-10-03 21:19:00,
2013-10-03 16:29:00,63.3,54.5,29.89,North,0,11.4,19.9,73,0.00,,,0.00,WUHU21636XXSP,2013-10-03 21:29:00,
2013-10-03 16:39:00,63.5,55.0,29.88,North,0,6.4,20.8,74,0.00,,,0.00,WUHU21636XXSP,2013-10-03 21:39:00,
2013-10-03 16:50:00,64.0,55.2,29.88,NE,45,3.1,17.6,73,0.00,,,0.00,WUHU21636XXSP,2013-10-03 21:50:00,
2013-10-03 17:00:00,64.9,55.6,29.88,NNE,22,7.3,14.3,72,0.00,,,0.00,WUHU21636XXSP,2013-10-03 22:00:00,
2013-10-03 17:10:00,64.8,55.0,29.88,NE,45,3.3,16.5,71,0.00,,,0.00,WUHU21636XXSP,2013-10-03 22:10:00,
2013-10-03 17:20:00,64.0,55.2,29.89,ENE,67,9.8,16.3,73,0.00,,,0.00,WUHU21636XXSP,2013-10-03 22:20:00,
2013-10-03 17:30:00,63.3,54.5,29.89,NE,45,1.5,14.7,73,0.00,,,0.00,WUHU21636XXSP,2013-10-03 22:30:00,
2013-10-03 17:40:00,62.2,53.8,29.90,NE,45,4.0,19.2,74,0.00,,,0.00,WUHU21636XXSP,2013-10-03 22:40:00,
2013-10-03 17:50:00,61.9,53.8,29.91,NNE,22,2.2,14.7,76,0.00,,,0.00,WUHU21636XXSP,2013-10-03 22:50:00,
2013-10-03 18:00:00,61.5,53.8,29.90,NE,45,3.1,11.4,76,0.00,,,0.00,WUHU21636XXSP,2013-10-03 23:00:00,
2013-10-03 18:10:00,61.2,53.4,29.90,NE,45,0.6,16.1,76,0.00,,,0.00,WUHU21636XXSP,2013-10-03 23:10:00,
2013-10-03 18:20:00,60.6,53.1,29.90,NNE,22,2.9,13.1,76,0.00,,,0.00,WUHU21636XXSP,2013-10-03 23:20:00,
2013-10-03 18:30:00,60.3,53.4,29.90,NNE,22,5.3,16.7,78,0.00,,,0.00,WUHU21636XXSP,2013-10-03 23:30:00,
2013-10-03 18:40:00,60.3,53.4,29.90,ENE,67,5.3,16.5,78,0.00,,,0.00,WUHU21636XXSP,2013-10-03 23:40:00,
2013-10-03 18:50:00,60.1,53.2,29.90,NE,45,8.5,16.7,78,0.00,,,0.00,WUHU21636XXSP,2013-10-03 23:50:00,
2013-10-03 19:00:00,59.7,53.2,29.90,ENE,67,8.5,19.0,79,0.00,,,0.00,WUHU21636XXSP,2013-10-04 00:00:00,
2013-10-03 19:10:00,59.5,53.4,29.90,NE,45,2.9,13.8,80,0.00,,,0.00,WUHU21636XXSP,2013-10-04 00:10:00,
2013-10-03 19:20:00,59.4,53.2,29.90,NE,45,8.0,15.4,80,0.00,,,0.00,WUHU21636XXSP,2013-10-04 00:20:00,
2013-10-03 19:30:00,59.2,53.2,29.91,NE,45,4.9,16.3,81,0.00,,,0.00,WUHU21636XXSP,2013-10-04 00:30:00,
2013-10-03 19:40:00,59.0,53.4,29.92,NE,45,0.0,5.3,82,0.00,,,0.00,WUHU21636XXSP,2013-10-04 00:40:00,
2013-10-03 19:50:00,59.0,53.4,29.92,ENE,67,0.4,10.5,82,0.00,,,0.00,WUHU21636XXSP,2013-10-04 00:50:00,
2013-10-03 20:00:00,59.2,53.6,29.92,NE,45,1.1,7.3,82,0.00,,,0.00,WUHU21636XXSP,2013-10-04 01:00:00,
2013-10-03 20:10:00,59.0,53.8,29.92,NE,45,0.0,11.6,83,0.00,,,0.00,WUHU21636XXSP,2013-10-04 01:10:00,
2013-10-03 20:20:00,59.0,53.8,29.92,North,0,5.1,10.9,83,0.00,,,0.00,WUHU21636XXSP,2013-10-04 01:20:00,
2013-10-03 20:30:00,59.0,53.8,29.92,NE,45,0.0,7.3,84,0.00,,,0.00,WUHU21636XXSP,2013-10-04 01:30:00,
2013-10-03 20:40:00,59.0,53.8,29.92,NE,45,0.0,2.6,84,0.00,,,0.00,WUHU21636XXSP,2013-10-04 01:40:00,
2013-10-03 20:50:00,59.0,54.5,29.92,NE,45,4.0,10.2,85,0.00,,,0.00,WUHU21636XXSP,2013-10-04 01:50:00,
2013-10-03 21:00:00,59.0,54.7,29.92,ENE,67,7.3,12.7,86,0.00,,,0.00,WUHU21636XXSP,2013-10-04 02:00:00,
2013-10-03 21:10:00,59.0,54.7,29.91,ENE,67,1.7,14.5,87,0.00,,,0.00,WUHU21636XXSP,2013-10-04 02:10:00,
2013-10-03 21:20:00,58.8,54.9,29.91,NE,45,3.5,12.5,87,0.00,,,0.00,WUHU21636XXSP,2013-10-04 02:20:00,
2013-10-03 21:30:00,58.6,55.0,29.91,NE,45,1.7,13.4,88,0.00,,,0.00,WUHU21636XXSP,2013-10-04 02:30:00,
2013-10-03 21:40:00,58.6,55.0,29.90,ENE,67,4.0,17.2,88,0.00,,,0.00,WUHU21636XXSP,2013-10-04 02:40:00,
2013-10-03 21:50:00,58.6,55.4,29.90,ENE,67,0.2,17.0,89,0.00,,,0.00,WUHU21636XXSP,2013-10-04 02:50:00,
2013-10-03 22:00:00,58.6,55.4,29.90,NE,45,7.1,17.8,89,0.00,,,0.00,WUHU21636XXSP,2013-10-04 03:00:00,
2013-10-03 22:10:00,58.6,55.8,29.90,East,90,8.7,19.6,90,0.00,,,0.00,WUHU21636XXSP,2013-10-04 03:10:00,
2013-10-03 22:20:00,58.6,55.8,29.89,NE,45,5.1,19.4,90,0.00,,,0.00,WUHU21636XXSP,2013-10-04 03:20:00,
2013-10-03 22:30:00,58.6,55.8,29.89,ENE,67,3.3,16.5,90,0.00,,,0.00,WUHU21636XXSP,2013-10-04 03:30:00,
2013-10-03 22:40:00,58.8,56.1,29.89,ENE,67,6.0,19.2,91,0.00,,,0.00,WUHU21636XXSP,2013-10-04 03:40:00,
2013-10-03 22:50:00,59.0,56.3,29.88,ESE,112,2.6,6.9,91,0.00,,,0.00,WUHU21636XXSP,2013-10-04 03:50:00,
2013-10-03 23:00:00,59.0,56.3,29.88,ENE,67,3.5,11.1,91,0.00,,,0.00,WUHU21636XXSP,2013-10-04 04:00:00,
2013-10-03 23:10:00,59.0,56.3,29.88,ENE,67,6.0,16.3,91,0.00,,,0.00,WUHU21636XXSP,2013-10-04 04:10:00,
2013-10-03 23:20:00,59.0,56.3,29.88,NE,45,3.8,16.3,91,0.00,,,0.00,WUHU21636XXSP,2013-10-04 04:20:00,
2013-10-03 23:34:00,59.2,56.5,29.88,NE,45,4.6,15.4,91,0.00,,,0.00,WUHU21636XXSP,2013-10-04 04:34:00,
2013-10-03 23:40:00,59.5,56.8,29.88,ENE,67,0.8,11.4,91,0.00,,,0.00,WUHU21636XXSP,2013-10-04 04:40:00,
2013-10-03 23:50:00,59.5,56.8,29.87,ENE,67,6.0,18.3,91,0.00,,,0.00,WUHU21636XXSP,2013-10-04 04:50:00,